SCP
0 0 0 0 0 0 0 0 0 0 0 0 0 0 0 0 0 0 0 0 0 0 0 0 0 0 0 0 0 0 0 0 0 0 0 0 0 0 0 0 0 0 0 0
0 0 0 0 0 0 0 0 0 0 0 0 0 0 0 0 0 0 0 0 0 0 0 0 0 0 0 0 0 0 0 0 0 0 0 0 0 0 0 0 0 0 0 0
0 0 0 0 0 0 0 0 0 0 0 0 0 0 0 0 0 0 0 0 0 0 0 0 0 0 0 0 0 0 0 0 0 0 0 0 0 0 0 0 0 0 0 0
0 0 0 0 0 0 0 0 0 0 0 0 0 0 -0 0 0 0 0 0 0 0 0 0 0 0 0 0 0 0 0 0 0 0 0 0 0 0 0 0 0 0 0 0
0 0 0 0 0 0 0 0 0 0 0 0 0 0 0 0 0 0 0 0 0 0 0 0 0 0 0 0 0 0 0 0 0 0 0 0 0 0 0 0 0 0 0 0
0 0 0 0 0 0 0 0 0 0 0 0 0 0 0 0 0 0 0 0 0 0 0 0 0 0 0 0 0 0 0 0 0 0 0 0 0 0 0 0 0 0 0 0
0 0 0 0 0 0 0 0 0 0 0 0 0 0 0 0 0 0 0 0 0 0 0 0 0 0 0 0 0 0 0 0 0 0 0 0 0 0 0 0 0 0 0 0
0 0 0 0 0 0 0 0 0 0 0 0 0 0 0 0 0 0 0 0 0 0 0 0 0 0 0 0 0 -0 -0 -0 -0 -0 -0 0 0 0 0 0 0 0 0 0
0 0 0 0 0 0 0 0 0 0 0 0 0 0 0 0 0 0 0 0 0 0 0 0 0 0 0 -0 -0 -0 -0 -0 -0 0 0 0 0 0 0 0 0 0 0 0
0 0 0 0 0 0 0 0 0 0 0 0 0 0 0 0 0 0 0 0 0 0 0 0 0 -0 -0 -0 -0 -0 -0 -0 -0 -0 -0 -0 0 0 0 0 0 0 0 0
0 0 0 0 0 0 0 0 0 0 0 0 0 0 0 0 0 0 0 0 0 -0 -0 -0 0 0 -0 -0 -0 -0 -0 -0 -0 -0 -0 -0 -0 -0 -0 -0 0 0 0 0
0 0 0 0 0 0 0 0 0 0 0 0 0 0 0 0 0 0 0 0 0 0 0 0 -0 -0 -0 -0 -0 0 0 0 -0 -0 -0 -0 -0 -0 -0 -0 -0 -0 -0 0
0 0 0 0 0 0 0 0 0 0 0 0 0 0 0 0 0 0 0 0 0 0 0 0 0 0 0 0 0 0 0 0 -0 -0 -0 -0 -0 -0 -0 -0 -0 -0 0 -0
0 0 0 0 0 0 0 0 0 0 0 0 0 0 0 0 0 -0 -0 0 0 0 0 0 0 -0 -0 -0 -0 -0 -0 0 0 0 0 0 0 0 0 0 0 0 0 0
0 0 0 0 0 0 0 0 0 0 0 0 0 0 0 0 0 0 0 0 0 0 0 0 0 0 0 0 -0 -0 -0 -0 -0 0 0 0 0 0 0 0 0 0 0 0
0 0 0 0 0 0 0 0 0 0 0 0 0 0 0 0 0 0 0 0 0 0 0 0 0 0 0 0 -0 -0 0 0 0 0 0 0 0 0 0 0 0 0 0 0
0 0 0 0 0 0 0 0 0 0 0 0 0 0 0 0 0 0 0 0 0 0 0 0 0 0 0 0 0 0 0 0 0 0 0 0 0 0 0 0 0 0 0 0
0 0 0 0 0 0 0 0 0 0 0 0 0 0 0 0 0 0 0 0 0 0 0 0 0 0 0 0 0 0 0 0 0 0 0 0 0 0 0 0 0 0 0 0
0 0 0 0 0 0 0 0 0 0 0 0 0 0 0 0 0 0 0 0 0 0 0 0 0 0 0 0 0 0 0 0 0 0 0 0 0 0 0 0 0 0 0 0
0 0 0 0 0 0 0 0 0 0 0 0 0 0 0 0 0 0 0 0 0 0 0 0 0 0 0 0 0 0 0 0 0 0 0 0 0 0 0 0 0 0 0 0
0 0 0 0 0 0 0 0 0 0 0 0 0 0 0 0 0 0 0 0 0 0 0 0 0 0 0 0 0 0 0 0 0 0 0 0 0 0 0 0 0 0 0 0
0 0 0 0 0 0 0 0 0 0 0 0 0 0 0 0 0 0 0 0 0 0 0 0 0 0 0 0 0 0 0 0 0 0 0 0 0 0 0 0 0 0 0 0
0 0 0 0 0 0 0 0 0 0 0 0 0 0 0 0 0 0 0 0 0 0 0 0 0 0 0 0 0 0 0 0 0 0 0 0 0 0 0 0 0 0 0 0
0 0 0 0 0 0 0 0 0 0 0 0 0 0 0 0 0 0 0 0 0 0 0 0 0 0 0 0 0 0 0 0 0 0 0 0 0 0 0 0 0 0 0 0
0 0 0 0 0 0 0 0 0 0 0 0 0 0 0 0 0 0 0 0 0 0 0 0 0 0 0 0 0 0 0 0 0 0 0 0 0 0 0 0 0 0 0 0
0 0 0 0 0 0 0 0 0 0 0 0 0 0 0 0 0 0 0 0 0 0 0 0 0 0 0 0 0 0 0 0 0 0 0 0 0 0 0 0 0 0 0 0
Wind_Speed_500mb
12 7 13 22 17 6 7 8 8 12 17 9 14 14 19 54 39 37 17 52 49 50 42 38 38 33 25 21 17 15 9 10 11 13 16 18 23 27 28 30 35 39 44 46
5 11 22 11 9 9 9 6 11 9 7 9 14 21 32 30 11 5 58 45 48 48 48 48 46 46 50 47 38 29 25 20 17 14 13 8 7 8 12 20 25 28 32 39
15 13 14 10 7 10 6 10 7 14 6 10 8 13 16 18 48 60 56 51 48 50 51 49 50 51 50 52 50 45 39 32 26 20 14 12 10 5 2 6 14 20 21 24
11 19 10 8 12 14 11 11 12 7 5 6 5 10 15 17 21 28 34 51 48 47 49 48 49 51 53 53 49 48 46 43 41 34 31 29 25 21 19 17 17 17 19 18
12 11 7 7 13 14 11 6 4 5 6 4 9 4 13 18 10 13 23 44 44 42 43 43 43 42 41 40 40 38 35 32 30 28 26 22 20 20 20 21 23 23 24 27
9 4 10 14 8 8 8 4 7 4 8 1 11 12 7 11 16 14 25 39 40 37 35 35 35 33 35 33 31 30 27 26 23 21 18 18 20 20 19 20 22 24 26 26
4 12 4 7 3 5 8 8 5 6 1 10 7 5 15 7 17 27 31 43 35 31 29 28 30 32 34 34 32 29 27 26 25 25 25 25 24 24 28 31 33 34 32 26
5 9 15 6 10 11 9 12 8 10 6 8 11 7 7 19 49 53 48 41 32 27 22 24 25 27 28 28 27 27 28 26 26 24 23 24 25 27 29 31 35 39 40 41
9 5 6 6 2 9 7 7 5 4 3 6 7 5 8 13 23 37 41 33 25 19 13 12 14 17 19 18 19 20 19 20 21 23 26 25 24 26 28 30 33 36 41 45
8 3 3 4 7 7 5 2 4 5 1 7 6 8 9 15 20 17 19 26 21 12 5 2 4 6 8 11 14 17 22 25 26 28 28 29 29 30 33 34 35 38 42 46
8 8 8 8 8 12 2 1 4 3 7 8 3 10 4 20 23 19 24 24 18 14 13 10 3 3 6 9 16 19 25 29 35 36 37 42 43 43 41 40 40 42 45 46
2 8 6 15 8 5 8 10 11 7 9 3 3 13 12 21 29 32 29 27 19 11 15 10 3 3 9 14 21 26 31 36 42 46 49 50 51 53 53 53 53 53 53 52
11 1 5 15 7 5 7 3 7 5 5 10 5 13 10 23 20 23 17 23 27 23 15 10 14 18 25 24 35 38 39 43 48 52 54 54 55 58 62 66 67 67 68 68
7 6 13 15 7 4 5 8 10 9 3 2 13 14 41 26 10 12 17 15 21 11 1 5 15 22 22 30 40 38 40 47 55 57 60 60 60 63 69 73 76 78 80 84
7 10 5 3 9 4 9 23 8 14 17 14 38 28 41 28 15 9 15 18 15 4 8 14 15 17 26 38 43 42 43 49 55 61 71 74 77 80 84 83 84 87 90 91
5 5 5 8 6 11 23 31 20 27 32 28 36 45 25 4 15 22 19 9 6 18 17 14 13 26 31 34 37 40 48 57 59 61 68 68 73 89 94 93 95 96 98 101
8 10 7 11 5 9 17 20 32 18 15 12 19 22 1 5 14 15 9 11 17 14 18 34 40 39 43 40 40 48 53 53 60 68 71 79 84 95 91 92 96 100 103 107
11 11 6 7 7 4 12 4 7 17 12 13 4 7 15 12 15 7 7 13 18 32 46 48 47 40 37 36 39 45 50 59 65 75 85 89 88 90 93 95 102 109 111 111
6 10 3 8 9 11 22 11 10 9 11 9 10 5 15 14 9 10 15 31 37 39 43 37 33 35 39 48 60 66 72 74 75 79 84 86 88 93 96 98 103 108 112 119
8 6 8 5 11 18 12 5 17 12 13 12 15 11 19 5 2 9 39 42 37 36 39 39 45 49 59 68 72 75 80 86 89 86 89 91 96 100 105 107 109 114 116 123
6 3 30 19 8 14 17 16 19 10 13 17 17 27 19 9 26 41 40 32 32 37 44 51 56 61 66 68 74 82 88 90 88 93 97 101 102 104 105 107 105 102 100 98
14 13 8 5 7 15 20 12 13 8 14 17 19 20 30 42 39 39 35 35 43 46 52 56 59 62 64 72 80 87 91 94 97 99 102 104 104 101 99 93 89 83 82 86
3 14 11 20 14 14 40 16 25 14 19 28 34 47 38 35 45 40 40 42 43 48 48 53 57 62 70 75 79 86 89 93 98 102 103 102 98 91 84 81 81 83 81 82
9 12 8 8 11 23 43 45 40 47 53 54 53 53 51 44 42 45 45 44 45 45 49 51 58 69 77 77 79 79 83 86 90 95 97 95 92 87 81 78 78 79 80 81
20 16 10 6 17 38 49 55 54 53 49 51 49 42 38 41 40 39 39 39 42 44 45 52 62 69 71 73 75 75 77 79 85 87 89 85 82 81 81 77 75 72 75 76
27 20 11 14 42 30 32 46 47 38 38 40 38 39 42 42 40 39 38 41 40 40 47 56 61 64 65 67 70 71 74 76 78 81 80 78 78 78 77 79 83 71 67 68
Wind_Direction_500mb
198 122 203 216 206 231 288 243 254 273 281 331 281 297 283 277 280 288 85 104 97 85 78 77 78 80 92 107 121 131 166 148 181 186 202 221 235 249 259 262 265 269 269 270
73 222 230 209 213 210 227 253 269 276 317 348 295 303 281 302 338 301 116 99 96 92 82 76 76 77 77 78 84 89 89 91 101 107 109 139 184 226 258 265 272 272 271 272
179 221 195 199 275 286 274 230 220 243 292 285 303 282 267 65 78 83 92 100 92 89 86 79 76 72 74 75 73 73 72 73 75 73 77 79 82 78 30 275 274 282 276 281
244 245 243 263 232 181 257 240 195 225 82 225 58 288 291 108 79 76 81 89 88 85 84 79 73 69 66 65 65 65 66 65 64 61 56 45 38 25 10 343 326 307 291 285
238 173 165 185 221 159 217 71 195 191 206 33 291 112 296 108 113 117 103 98 95 92 87 81 74 68 63 58 53 51 48 46 40 32 27 24 20 15 357 338 326 315 305 293
229 200 188 207 219 172 143 69 285 129 127 248 246 162 249 184 184 150 126 109 104 95 87 77 70 66 61 52 44 37 34 30 23 15 12 6 1 354 344 342 338 336 326 310
223 222 242 190 129 57 87 73 317 358 18 216 192 141 239 317 124 130 118 109 100 90 78 68 58 47 36 27 23 21 20 19 17 13 8 6 1 355 351 348 344 340 337 334
215 304 157 196 182 184 173 172 154 230 235 254 347 264 360 66 96 107 111 108 100 88 69 53 38 29 23 18 16 14 15 15 10 3 3 2 358 355 352 346 343 340 336 333
190 258 31 53 355 136 192 185 187 154 94 56 215 103 94 98 97 108 115 119 116 104 82 47 22 10 10 13 14 11 16 13 8 4 358 357 355 349 345 341 337 331 328 327
170 208 260 172 109 40 128 200 35 6 233 254 268 248 201 178 151 138 131 128 127 124 114 36 355 351 360 16 25 20 18 16 14 8 0 357 351 343 337 333 325 320 318 318
129 128 241 123 171 181 13 231 217 201 168 188 259 253 231 164 153 149 157 164 177 195 189 184 192 311 327 2 15 14 11 4 1 355 350 351 346 340 337 330 324 320 316 315
115 130 207 226 256 102 199 218 179 169 262 254 148 263 107 130 149 163 180 199 212 207 178 177 243 272 324 343 346 345 347 349 347 343 343 340 334 330 328 324 322 319 316 313
185 123 3 337 20 33 90 129 108 81 107 219 217 256 116 124 158 197 217 217 194 182 188 244 292 300 307 314 326 326 327 332 336 335 332 328 325 323 321 319 317 315 314 312
113 137 167 205 133 108 270 222 113 123 179 252 235 302 291 292 313 235 210 183 156 148 128 309 282 286 282 281 288 291 304 316 320 320 321 318 318 317 316 314 311 309 309 308
112 183 220 281 113 117 232 263 165 201 226 208 270 263 270 298 308 197 154 137 128 112 319 307 303 306 302 305 300 300 300 305 305 306 311 314 315 315 314 310 307 305 303 302
1 197 90 313 266 230 262 263 262 247 254 249 254 265 283 186 106 103 102 91 341 328 329 310 306 308 312 313 308 305 304 301 302 297 299 298 300 305 306 304 304 304 304 303
130 122 83 269 333 40 300 236 227 231 214 202 228 249 124 246 143 119 82 356 328 332 330 318 315 317 317 316 305 301 300 295 294 295 294 296 293 298 299 299 298 297 296 296
141 115 103 215 32 288 249 286 186 212 236 190 190 227 220 202 150 104 56 352 328 325 319 313 311 307 307 305 304 301 297 295 294 293 295 299 303 302 300 297 296 296 295 295
168 143 156 166 197 311 300 248 178 164 270 189 197 241 203 164 321 292 293 327 312 316 318 307 295 300 306 310 310 308 307 307 307 306 305 303 301 299 295 291 289 288 288 288
163 149 151 103 172 209 240 231 141 104 273 215 181 178 153 116 4 262 318 314 303 307 308 297 296 302 308 312 314 314 314 315 316 314 307 304 301 298 297 296 293 290 288 284
104 65 210 214 224 278 245 202 156 105 262 162 183 168 174 191 259 292 303 289 285 297 299 299 300 306 312 315 315 316 318 319 317 314 312 311 309 307 305 305 304 302 300 297
160 158 194 117 212 266 177 126 165 192 149 169 187 233 262 274 282 292 283 275 288 297 304 304 307 311 316 318 319 318 319 319 317 316 314 312 313 312 311 310 309 308 306 304
200 194 180 187 204 211 178 219 237 222 258 268 270 289 285 281 290 288 279 283 291 300 303 307 311 314 318 322 323 320 321 320 318 317 316 317 317 317 317 315 313 312 311 306
273 173 209 88 228 227 251 261 257 262 269 279 284 291 292 287 287 284 280 287 297 304 307 310 315 317 319 322 321 323 324 321 319 318 320 322 322 321 320 319 315 310 306 300
211 162 191 269 265 265 264 262 269 273 276 276 276 278 278 284 280 278 282 292 301 304 307 314 317 317 320 320 322 328 325 325 323 324 324 323 322 322 321 319 317 310 304 299
208 214 213 233 240 222 241 263 273 269 266 266 257 269 280 278 278 283 287 295 296 301 310 315 317 320 322 323 328 330 330 331 329 325 325 326 325 325 323 322 321 323 308 301
Wind_Speed_850mb
12 7 13 22 17 6 7 8 8 12 17 9 14 14 19 54 39 37 17 52 49 50 42 38 38 33 25 21 17 15 9 10 11 13 16 18 23 27 28 30 35 39 44 46
5 11 22 11 9 9 9 6 11 9 7 9 14 21 32 30 11 5 58 45 48 48 48 48 46 46 50 47 38 29 25 20 17 14 13 8 7 8 12 20 25 28 32 39
15 13 14 10 7 10 6 10 7 14 6 10 8 13 16 18 48 60 56 51 48 50 51 49 50 51 50 52 50 45 39 32 26 20 14 12 10 5 2 6 14 20 21 24
11 19 10 8 12 14 11 11 12 7 5 6 5 10 15 17 21 28 34 51 48 47 49 48 49 51 53 53 49 48 46 43 41 34 31 29 25 21 19 17 17 17 19 18
12 11 7 7 13 14 11 6 4 5 6 4 9 4 13 18 10 13 23 44 44 42 43 43 43 42 41 40 40 38 35 32 30 28 26 22 20 20 20 21 23 23 24 27
9 4 10 14 8 8 8 4 7 4 8 1 11 12 7 11 16 14 25 39 40 37 35 35 35 33 35 33 31 30 27 26 23 21 18 18 20 20 19 20 22 24 26 26
4 12 4 7 3 5 8 8 5 6 1 10 7 5 15 7 17 27 31 43 35 31 29 28 30 32 34 34 32 29 27 26 25 25 25 25 24 24 28 31 33 34 32 26
5 9 15 6 10 11 9 12 8 10 6 8 11 7 7 19 49 53 48 41 32 27 22 24 25 27 28 28 27 27 28 26 26 24 23 24 25 27 29 31 35 39 40 41
9 5 6 6 2 9 7 7 5 4 3 6 7 5 8 13 23 37 41 33 25 19 13 12 14 17 19 18 19 20 19 20 21 23 26 25 24 26 28 30 33 36 41 45
8 3 3 4 7 7 5 2 4 5 1 7 6 8 9 15 20 17 19 26 21 12 5 2 4 6 8 11 14 17 22 25 26 28 28 29 29 30 33 34 35 38 42 46
8 8 8 8 8 12 2 1 4 3 7 8 3 10 4 20 23 19 24 24 18 14 13 10 3 3 6 9 16 19 25 29 35 36 37 42 43 43 41 40 40 42 45 46
2 8 6 15 8 5 8 10 11 7 9 3 3 13 12 21 29 32 29 27 19 11 15 10 3 3 9 14 21 26 31 36 42 46 49 50 51 53 53 53 53 53 53 52
11 1 5 15 7 5 7 3 7 5 5 10 5 13 10 23 20 23 17 23 27 23 15 10 14 18 25 24 35 38 39 43 48 52 54 54 55 58 62 66 67 67 68 68
7 6 13 15 7 4 5 8 10 9 3 2 13 14 41 26 10 12 17 15 21 11 1 5 15 22 22 30 40 38 40 47 55 57 60 60 60 63 69 73 76 78 80 84
7 10 5 3 9 4 9 23 8 14 17 14 38 28 41 28 15 9 15 18 15 4 8 14 15 17 26 38 43 42 43 49 55 61 71 74 77 80 84 83 84 87 90 91
5 5 5 8 6 11 23 31 20 27 32 28 36 45 25 4 15 22 19 9 6 18 17 14 13 26 31 34 37 40 48 57 59 61 68 68 73 89 94 93 95 96 98 101
8 10 7 11 5 9 17 20 32 18 15 12 19 22 1 5 14 15 9 11 17 14 18 34 40 39 43 40 40 48 53 53 60 68 71 79 84 95 91 92 96 100 103 107
11 11 6 7 7 4 12 4 7 17 12 13 4 7 15 12 15 7 7 13 18 32 46 48 47 40 37 36 39 45 50 59 65 75 85 89 88 90 93 95 102 109 111 111
6 10 3 8 9 11 22 11 10 9 11 9 10 5 15 14 9 10 15 31 37 39 43 37 33 35 39 48 60 66 72 74 75 79 84 86 88 93 96 98 103 108 112 119
8 6 8 5 11 18 12 5 17 12 13 12 15 11 19 5 2 9 39 42 37 36 39 39 45 49 59 68 72 75 80 86 89 86 89 91 96 100 105 107 109 114 116 123
6 3 30 19 8 14 17 16 19 10 13 17 17 27 19 9 26 41 40 32 32 37 44 51 56 61 66 68 74 82 88 90 88 93 97 101 102 104 105 107 105 102 100 98
14 13 8 5 7 15 20 12 13 8 14 17 19 20 30 42 39 39 35 35 43 46 52 56 59 62 64 72 80 87 91 94 97 99 102 104 104 101 99 93 89 83 82 86
3 14 11 20 14 14 40 16 25 14 19 28 34 47 38 35 45 40 40 42 43 48 48 53 57 62 70 75 79 86 89 93 98 102 103 102 98 91 84 81 81 83 81 82
9 12 8 8 11 23 43 45 40 47 53 54 53 53 51 44 42 45 45 44 45 45 49 51 58 69 77 77 79 79 83 86 90 95 97 95 92 87 81 78 78 79 80 81
20 16 10 6 17 38 49 55 54 53 49 51 49 42 38 41 40 39 39 39 42 44 45 52 62 69 71 73 75 75 77 79 85 87 89 85 82 81 81 77 75 72 75 76
27 20 11 14 42 30 32 46 47 38 38 40 38 39 42 42 40 39 38 41 40 40 47 56 61 64 65 67 70 71 74 76 78 81 80 78 78 78 77 79 83 71 67 68
Wind_Direction_850mb
198 122 203 216 206 231 288 243 254 273 281 331 281 297 283 277 280 288 85 104 97 85 78 77 78 80 92 107 121 131 166 148 181 186 202 221 235 249 259 262 265 269 269 270
73 222 230 209 213 210 227 253 269 276 317 348 295 303 281 302 338 301 116 99 96 92 82 76 76 77 77 78 84 89 89 91 101 107 109 139 184 226 258 265 272 272 271 272
179 221 195 199 275 286 274 230 220 243 292 285 303 282 267 65 78 83 92 100 92 89 86 79 76 72 74 75 73 73 72 73 75 73 77 79 82 78 30 275 274 282 276 281
244 245 243 263 232 181 257 240 195 225 82 225 58 288 291 108 79 76 81 89 88 85 84 79 73 69 66 65 65 65 66 65 64 61 56 45 38 25 10 343 326 307 291 285
238 173 165 185 221 159 217 71 195 191 206 33 291 112 296 108 113 117 103 98 95 92 87 81 74 68 63 58 53 51 48 46 40 32 27 24 20 15 357 338 326 315 305 293
229 200 188 207 219 172 143 69 285 129 127 248 246 162 249 184 184 150 126 109 104 95 87 77 70 66 61 52 44 37 34 30 23 15 12 6 1 354 344 342 338 336 326 310
223 222 242 190 129 57 87 73 317 358 18 216 192 141 239 317 124 130 118 109 100 90 78 68 58 47 36 27 23 21 20 19 17 13 8 6 1 355 351 348 344 340 337 334
215 304 157 196 182 184 173 172 154 230 235 254 347 264 360 66 96 107 111 108 100 88 69 53 38 29 23 18 16 14 15 15 10 3 3 2 358 355 352 346 343 340 336 333
190 258 31 53 355 136 192 185 187 154 94 56 215 103 94 98 97 108 115 119 116 104 82 47 22 10 10 13 14 11 16 13 8 4 358 357 355 349 345 341 337 331 328 327
170 208 260 172 109 40 128 200 35 6 233 254 268 248 201 178 151 138 131 128 127 124 114 36 355 351 360 16 25 20 18 16 14 8 0 357 351 343 337 333 325 320 318 318
129 128 241 123 171 181 13 231 217 201 168 188 259 253 231 164 153 149 157 164 177 195 189 184 192 311 327 2 15 14 11 4 1 355 350 351 346 340 337 330 324 320 316 315
115 130 207 226 256 102 199 218 179 169 262 254 148 263 107 130 149 163 180 199 212 207 178 177 243 272 324 343 346 345 347 349 347 343 343 340 334 330 328 324 322 319 316 313
185 123 3 337 20 33 90 129 108 81 107 219 217 256 116 124 158 197 217 217 194 182 188 244 292 300 307 314 326 326 327 332 336 335 332 328 325 323 321 319 317 315 314 312
113 137 167 205 133 108 270 222 113 123 179 252 235 302 291 292 313 235 210 183 156 148 128 309 282 286 282 281 288 291 304 316 320 320 321 318 318 317 316 314 311 309 309 308
112 183 220 281 113 117 232 263 165 201 226 208 270 263 270 298 308 197 154 137 128 112 319 307 303 306 302 305 300 300 300 305 305 306 311 314 315 315 314 310 307 305 303 302
1 197 90 313 266 230 262 263 262 247 254 249 254 265 283 186 106 103 102 91 341 328 329 310 306 308 312 313 308 305 304 301 302 297 299 298 300 305 306 304 304 304 304 303
130 122 83 269 333 40 300 236 227 231 214 202 228 249 124 246 143 119 82 356 328 332 330 318 315 317 317 316 305 301 300 295 294 295 294 296 293 298 299 299 298 297 296 296
141 115 103 215 32 288 249 286 186 212 236 190 190 227 220 202 150 104 56 352 328 325 319 313 311 307 307 305 304 301 297 295 294 293 295 299 303 302 300 297 296 296 295 295
168 143 156 166 197 311 300 248 178 164 270 189 197 241 203 164 321 292 293 327 312 316 318 307 295 300 306 310 310 308 307 307 307 306 305 303 301 299 295 291 289 288 288 288
163 149 151 103 172 209 240 231 141 104 273 215 181 178 153 116 4 262 318 314 303 307 308 297 296 302 308 312 314 314 314 315 316 314 307 304 301 298 297 296 293 290 288 284
104 65 210 214 224 278 245 202 156 105 262 162 183 168 174 191 259 292 303 289 285 297 299 299 300 306 312 315 315 316 318 319 317 314 312 311 309 307 305 305 304 302 300 297
160 158 194 117 212 266 177 126 165 192 149 169 187 233 262 274 282 292 283 275 288 297 304 304 307 311 316 318 319 318 319 319 317 316 314 312 313 312 311 310 309 308 306 304
200 194 180 187 204 211 178 219 237 222 258 268 270 289 285 281 290 288 279 283 291 300 303 307 311 314 318 322 323 320 321 320 318 317 316 317 317 317 317 315 313 312 311 306
273 173 209 88 228 227 251 261 257 262 269 279 284 291 292 287 287 284 280 287 297 304 307 310 315 317 319 322 321 323 324 321 319 318 320 322 322 321 320 319 315 310 306 300
211 162 191 269 265 265 264 262 269 273 276 276 276 278 278 284 280 278 282 292 301 304 307 314 317 317 320 320 322 328 325 325 323 324 324 323 322 322 321 319 317 310 304 299
208 214 213 233 240 222 241 263 273 269 266 266 257 269 280 278 278 283 287 295 296 301 310 315 317 320 322 323 328 330 330 331 329 325 325 326 325 325 323 322 321 323 308 301